STARLINK-4292 (53175 NORAD) Tracking and Keplerian Element Data

This shows tracking and keplerian element data for the satellite.

Feedback or suggestion? Click here.




ElementValue
Catalog53175
NameSTARLINK-4292
Epoch Orbit130
Epoch Day269.91667824
Epoch Year2022
RAAN69.4504
Inclination53.2182
Eccentricity0.0001732
Argument of Perigee44.8171
Mean Anonmoly211.9647
Mean Motion15.0882621
Decay Rate0.00013192
L11 53175U 22083AV 22269.91667824 .00013192 00000+0 84573-3 0 9995
L22 53175 53.2182 69.4504 0001732 44.8171 211.9647 15.08826210 1307

Live tracking and technical data element details for STARLINK-4292 (NORAD 53175). STARLINK-4292 can be tracked NOW for your location showing map with azimuth and elevation plus other details from your city location.

Track the satellite on the map from your city or location and see movement details for azimuth, elevation, latitude, longitude, range, height, and movement on the map or in text.







IsCatalogInMostPopularTable: catalog: 53175, numindb: 5
Update: records affected: 1



GetName: 53175 STARLINK-4292

Hit Count: updated at: Thu, 29 Sep 2022 11:00:38 GMT